| time (UTC) | temp F | wind direction | speed knots | gust knots | rain 1hr in | rain 24hr in | rain mn in | humidity % | barometer mb |
| 20260506182503 | 86 | 161 | 1.7 | 7.0 | 0.00 | 0.00 | 0.00 | 83 | 1009.5 |
| 20260506182005 | 86 | 153 | 0.9 | 7.0 | 0.00 | 0.00 | 0.00 | 83 | 1009.6 |
| 20260506181514 | 86 | 159 | 3.5 | 7.0 | 0.00 | 0.00 | 0.00 | 84 | 1009.8 |
| 20260506181007 | 85 | 170 | 1.7 | 4.3 | 0.00 | 0.00 | 0.00 | 84 | 1009.8 |
| 20260506180507 | 85 | 196 | 1.7 | 6.1 | 0.00 | 0.00 | 0.00 | 85 | 1010.0 |
| 20260506180022 | 85 | 242 | 1.7 | 6.1 | 0.00 | 0.00 | 0.00 | 84 | 1010.1 |
| 20260506175508 | 85 | 51 | 1.7 | 4.3 | 0.00 | 0.00 | 0.00 | 85 | 1010.2 |
| 20260506175010 | 84 | 124 | 0.9 | 7.0 | 0.00 | 0.00 | 0.00 | 85 | 1010.4 |
| 20260506174509 | 84 | 247 | 0.9 | 7.0 | 0.00 | 0.00 | 0.00 | 85 | 1010.4 |
| 20260506174010 | 84 | 157 | 0.9 | 4.3 | 0.00 | 0.00 | 0.00 | 86 | 1010.5 |
| 20260506173505 | 84 | 247 | 1.7 | 4.3 | 0.00 | 0.00 | 0.00 | 86 | 1010.6 |
| 20260506173018 | 83 | 137 | 0.9 | 5.2 | 0.00 | 0.00 | 0.00 | 86 | 1010.8 |
| 20260506172507 | 83 | 161 | 1.7 | 5.2 | 0.00 | 0.00 | 0.00 | 86 | 1010.7 |
| 20260506172008 | 83 | 153 | 1.7 | 6.1 | 0.00 | 0.00 | 0.00 | 86 | 1010.8 |
| 20260506171525 | 83 | 190 | 0.9 | 6.1 | 0.00 | 0.00 | 0.00 | 85 | 1010.7 |
| 20260506171009 | 83 | 157 | 0.9 | 5.2 | 0.00 | 0.00 | 0.00 | 86 | 1010.9 |
| 20260506170507 | 83 | 193 | 0.9 | 5.2 | 0.00 | 0.00 | 0.00 | 86 | 1010.8 |
| 20260506170011 | 83 | 168 | 2.6 | 7.8 | 0.00 | 0.00 | 0.00 | 86 | 1010.9 |
| 20260506165510 | 83 | 165 | 1.7 | 7.8 | 0.00 | 0.00 | 0.00 | 87 | 1010.8 |
| 20260506165013 | 83 | 144 | 3.5 | 7.0 | 0.00 | 0.00 | 0.00 | 88 | 1010.9 |
| 20260506164524 | 82 | 148 | 0.9 | 5.2 | 0.00 | 0.00 | 0.00 | 88 | 1010.8 |
| 20260506164011 | 82 | 178 | 1.7 | 6.1 | 0.00 | 0.00 | 0.00 | 88 | 1010.7 |
| 20260506163510 | 81 | 146 | 2.6 | 8.7 | 0.00 | 0.00 | 0.00 | 88 | 1010.7 |
| 20260506163027 | 81 | 175 | 3.5 | 8.7 | 0.00 | 0.00 | 0.00 | 87 | 1010.8 |
| 20260506162507 | 81 | 155 | 2.6 | 10.4 | 0.00 | 0.00 | 0.00 | 87 | 1010.6 |
| 20260506162010 | 81 | 193 | 2.6 | 10.4 | 0.00 | 0.00 | 0.00 | 87 | 1010.6 |
| 20260506161516 | 81 | 199 | 4.3 | 7.8 | 0.00 | 0.00 | 0.00 | 87 | 1010.4 |
| 20260506161011 | 81 | 198 | 1.7 | 7.8 | 0.00 | 0.00 | 0.00 | 87 | 1010.4 |
| 20260506160507 | 81 | 157 | 2.6 | 7.8 | 0.00 | 0.00 | 0.00 | 87 | 1010.4 |
| 20260506160021 | 81 | 171 | 2.6 | 7.8 | 0.00 | 0.00 | 0.00 | 87 | 1010.3 |
| 20260506155508 | 81 | 171 | 2.6 | 6.1 | 0.00 | 0.00 | 0.00 | 87 | 1010.3 |
| 20260506155009 | 81 | 165 | 1.7 | 7.8 | 0.00 | 0.00 | 0.00 | 87 | 1010.4 |
| 20260506154530 | 81 | 200 | 2.6 | 7.8 | 0.00 | 0.00 | 0.00 | 88 | 1010.3 |
| 20260506154006 | 81 | 163 | 2.6 | 8.7 | 0.00 | 0.00 | 0.00 | 87 | 1010.3 |
| 20260506153510 | 81 | 238 | 2.6 | 8.7 | 0.00 | 0.00 | 0.00 | 87 | 1010.4 |
| 20260506153016 | 81 | 160 | 1.7 | 8.7 | 0.00 | 0.00 | 0.00 | 88 | 1010.3 |
| 20260506152507 | 80 | 205 | 2.6 | 5.2 | 0.00 | 0.00 | 0.00 | 89 | 1010.2 |
| 20260506152011 | 80 | 191 | 0.9 | 5.2 | 0.00 | 0.00 | 0.00 | 89 | 1010.0 |
| 20260506151526 | 80 | 170 | 0.9 | 6.1 | 0.00 | 0.00 | 0.00 | 89 | 1010.0 |
| 20260506151012 | 80 | 148 | 0.9 | 6.1 | 0.00 | 0.00 | 0.00 | 89 | 1009.8 |
| 20260506150511 | 80 | 178 | 1.7 | 7.0 | 0.00 | 0.00 | 0.00 | 89 | 1009.8 |
| 20260506150014 | 79 | 171 | 2.6 | 7.0 | 0.00 | 0.00 | 0.00 | 90 | 1009.9 |
| 20260506145512 | 79 | 146 | 2.6 | 6.1 | 0.00 | 0.00 | 0.00 | 90 | 1009.8 |
| 20260506145010 | 79 | 157 | 1.7 | 5.2 | 0.00 | 0.00 | 0.00 | 91 | 1009.7 |
| 20260506144536 | 79 | 9 | 0.9 | 7.0 | 0.00 | 0.00 | 0.00 | 91 | 1009.7 |
| 20260506144007 | 79 | 168 | 2.6 | 7.8 | 0.00 | 0.00 | 0.00 | 91 | 1009.6 |
| 20260506143510 | 79 | 146 | 1.7 | 8.7 | 0.00 | 0.00 | 0.00 | 92 | 1009.4 |
| 20260506143028 | 79 | 166 | 2.6 | 8.7 | 0.00 | 0.00 | 0.00 | 92 | 1009.2 |
| 20260506142514 | 78 | 187 | 2.6 | 9.6 | 0.00 | 0.00 | 0.00 | 93 | 1009.2 |
| 20260506142008 | 78 | 196 | 2.6 | 9.6 | 0.00 | 0.00 | 0.00 | 93 | 1009.2 |
| 20260506141520 | 78 | 225 | 2.6 | 8.7 | 0.00 | 0.00 | 0.00 | 94 | 1009.4 |
| 20260506141014 | 78 | 165 | 1.7 | 6.1 | 0.00 | 0.00 | 0.00 | 94 | 1009.4 |
| 20260506140508 | 77 | 142 | 1.7 | 7.8 | 0.00 | 0.00 | 0.00 | 94 | 1009.4 |
| 20260506140036 | 77 | 164 | 3.5 | 7.8 | 0.00 | 0.00 | 0.00 | 94 | 1009.5 |
| 20260506135509 | 77 | 137 | 2.6 | 7.0 | 0.00 | 0.00 | 0.00 | 94 | 1009.5 |
| 20260506135014 | 77 | 165 | 3.5 | 7.0 | 0.00 | 0.00 | 0.00 | 94 | 1009.5 |
| 20260506134533 | 77 | 175 | 2.6 | 6.1 | 0.00 | 0.00 | 0.00 | 95 | 1009.6 |
| 20260506134006 | 76 | 200 | 1.7 | 5.2 | 0.00 | 0.00 | 0.00 | 95 | 1009.6 |
| 20260506133509 | 76 | 143 | 0.9 | 6.1 | 0.00 | 0.00 | 0.00 | 95 | 1009.5 |
| 20260506133023 | 76 | 205 | 1.7 | 6.1 | 0.00 | 0.00 | 0.00 | 95 | 1009.6 |
| 20260506132514 | 76 | 143 | 1.7 | 6.1 | 0.00 | 0.00 | 0.00 | 95 | 1009.6 |
| 20260506132012 | 76 | 126 | 0.9 | 4.3 | 0.00 | 0.00 | 0.00 | 95 | 1009.7 |
| 20260506131533 | 76 | 132 | 1.7 | 6.1 | 0.00 | 0.00 | 0.00 | 95 | 1009.7 |
| 20260506131012 | 75 | 178 | 0.9 | 6.1 | 0.00 | 0.00 | 0.00 | 95 | 1009.7 |
| 20260506130510 | 75 | 175 | 1.7 | 6.1 | 0.00 | 0.00 | 0.00 | 95 | 1009.7 |
| 20260506130018 | 75 | 214 | 1.7 | 5.2 | 0.00 | 0.00 | 0.00 | 95 | 1009.7 |
| 20260506125508 | 75 | 170 | 1.7 | 5.2 | 0.00 | 0.00 | 0.00 | 95 | 1009.8 |
| 20260506125010 | 75 | 153 | 1.7 | 5.2 | 0.00 | 0.00 | 0.00 | 95 | 1009.7 |
| 20260506124527 | 75 | 140 | 1.7 | 5.2 | 0.00 | 0.00 | 0.00 | 95 | 1009.6 |
| 20260506124010 | 75 | 221 | 0.9 | 3.5 | 0.00 | 0.00 | 0.00 | 95 | 1009.6 |
| 20260506123503 | 75 | 178 | 0.9 | 4.3 | 0.00 | 0.00 | 0.00 | 95 | 1009.6 |
| 20260506123015 | 75 | 148 | 0.9 | 4.3 | 0.00 | 0.00 | 0.00 | 95 | 1009.7 |
| 20260506122506 | 75 | 93 | 0.9 | 4.3 | 0.00 | 0.00 | 0.00 | 95 | 1009.5 |
| 20260506122007 | 74 | 137 | 0.0 | 4.3 | 0.00 | 0.00 | 0.00 | 95 | 1009.5 |
| 20260506121521 | 74 | 178 | 0.9 | 3.5 | 0.00 | 0.00 | 0.00 | 95 | 1009.4 |
| 20260506121006 | 74 | 193 | 0.9 | 3.5 | 0.00 | 0.00 | 0.00 | 95 | 1009.4 |
| 20260506120507 | 74 | 171 | 0.9 | 3.5 | 0.00 | 0.00 | 0.00 | 94 | 1009.4 |
| 20260506120032 | 74 | 192 | 0.9 | 3.5 | 0.00 | 0.00 | 0.00 | 94 | 1009.3 |
| 20260506115509 | 74 | 221 | 0.9 | 2.6 | 0.00 | 0.00 | 0.00 | 94 | 1009.3 |
| 20260506115003 | 74 | 153 | 0.9 | 6.1 | 0.00 | 0.00 | 0.00 | 94 | 1009.2 |
| 20260506114519 | 74 | 165 | 0.9 | 6.1 | 0.00 | 0.00 | 0.00 | 94 | 1009.2 |
| 20260506114012 | 74 | 161 | 0.9 | 4.3 | 0.00 | 0.00 | 0.00 | 94 | 1009.2 |
| 20260506113507 | 74 | 221 | 0.9 | 4.3 | 0.00 | 0.00 | 0.00 | 94 | 1009.0 |
| 20260506113030 | 74 | 196 | 1.7 | 6.1 | 0.00 | 0.00 | 0.00 | 94 | 1009.0 |
| 20260506112510 | 74 | 221 | 1.7 | 6.1 | 0.00 | 0.00 | 0.00 | 94 | 1009.0 |
| 20260506112009 | 74 | 178 | 2.6 | 6.1 | 0.00 | 0.00 | 0.00 | 94 | 1008.9 |
| 20260506111507 | 74 | 169 | 1.7 | 4.3 | 0.00 | 0.00 | 0.00 | 94 | 1008.8 |
| 20260506111004 | 74 | 168 | 0.9 | 4.3 | 0.00 | 0.00 | 0.00 | 94 | 1008.7 |
| 20260506110511 | 74 | 153 | 0.9 | 4.3 | 0.00 | 0.00 | 0.00 | 94 | 1008.7 |
| 20260506110019 | 74 | 148 | 0.9 | 4.3 | 0.00 | 0.00 | 0.00 | 94 | 1008.7 |
| 20260506105507 | 74 | 190 | 0.9 | 4.3 | 0.00 | 0.00 | 0.00 | 94 | 1008.6 |
| 20260506105008 | 74 | 51 | 0.9 | 4.3 | 0.00 | 0.00 | 0.00 | 94 | 1008.6 |
| 20260506104528 | 74 | 186 | 1.7 | 4.3 | 0.00 | 0.00 | 0.00 | 94 | 1008.5 |
| 20260506104009 | 74 | 196 | 1.7 | 4.3 | 0.00 | 0.00 | 0.00 | 94 | 1008.5 |
| 20260506103503 | 74 | 178 | 1.7 | 4.3 | 0.00 | 0.00 | 0.00 | 93 | 1008.6 |
| 20260506103010 | 74 | 170 | 0.9 | 4.3 | 0.00 | 0.00 | 0.00 | 93 | 1008.6 |
| 20260506102507 | 74 | 148 | 0.9 | 4.3 | 0.00 | 0.00 | 0.00 | 93 | 1008.6 |
| 20260506102007 | 74 | 360 | 1.7 | 5.2 | 0.00 | 0.00 | 0.00 | 93 | 1008.6 |
| 20260506101524 | 74 | 178 | 1.7 | 5.2 | 0.00 | 0.00 | 0.00 | 93 | 1008.6 |
| 20260506101012 | 74 | 190 | 1.7 | 5.2 | 0.00 | 0.00 | 0.00 | 93 | 1008.5 |
| 20260506100514 | 74 | 169 | 1.7 | 5.2 | 0.00 | 0.00 | 0.00 | 93 | 1008.4 |
| 20260506100028 | 74 | 221 | 1.7 | 6.1 | 0.00 | 0.00 | 0.00 | 93 | 1008.4 |
| 20260506095504 | 74 | 159 | 2.6 | 6.1 | 0.00 | 0.00 | 0.00 | 93 | 1008.4 |
| 20260506095007 | 75 | 196 | 2.6 | 6.1 | 0.00 | 0.00 | 0.00 | 93 | 1008.3 |
| 20260506094515 | 75 | 178 | 2.6 | 5.2 | 0.00 | 0.00 | 0.00 | 93 | 1008.2 |
| 20260506094008 | 75 | 146 | 1.7 | 5.2 | 0.00 | 0.00 | 0.00 | 93 | 1008.3 |
| 20260506093511 | 75 | 178 | 2.6 | 5.2 | 0.00 | 0.00 | 0.00 | 93 | 1008.2 |
| 20260506093031 | 75 | 171 | 2.6 | 7.0 | 0.00 | 0.00 | 0.00 | 93 | 1008.2 |
| 20260506092509 | 75 | 175 | 3.5 | 7.8 | 0.00 | 0.00 | 0.00 | 92 | 1008.2 |
| 20260506092014 | 75 | 164 | 3.5 | 10.4 | 0.00 | 0.00 | 0.00 | 92 | 1008.3 |
| 20260506091528 | 75 | 155 | 3.5 | 10.4 | 0.00 | 0.00 | 0.00 | 93 | 1008.2 |
| 20260506091007 | 75 | 182 | 4.3 | 9.6 | 0.00 | 0.00 | 0.00 | 92 | 1008.2 |
| 20260506090513 | 75 | 161 | 2.6 | 9.6 | 0.00 | 0.00 | 0.00 | 92 | 1008.3 |
| 20260506090018 | 75 | 155 | 3.5 | 9.6 | 0.00 | 0.00 | 0.00 | 92 | 1008.4 |
| 20260506085513 | 76 | 171 | 3.5 | 6.1 | 0.00 | 0.00 | 0.00 | 92 | 1008.4 |
| 20260506085006 | 76 | 182 | 2.6 | 7.0 | 0.00 | 0.00 | 0.00 | 92 | 1008.4 |
| 20260506084532 | 76 | 211 | 2.6 | 7.8 | 0.00 | 0.00 | 0.00 | 92 | 1008.4 |
| 20260506084008 | 76 | 182 | 4.3 | 7.8 | 0.00 | 0.00 | 0.00 | 92 | 1008.3 |
| 20260506083508 | 76 | 150 | 2.6 | 7.8 | 0.00 | 0.00 | 0.00 | 92 | 1008.4 |
| 20260506083032 | 76 | 187 | 1.7 | 8.7 | 0.00 | 0.00 | 0.00 | 92 | 1008.6 |
| 20260506082511 | 76 | 193 | 3.5 | 8.7 | 0.00 | 0.00 | 0.00 | 92 | 1008.5 |
| 20260506082007 | 76 | 159 | 2.6 | 9.6 | 0.00 | 0.00 | 0.00 | 92 | 1008.5 |
| 20260506081525 | 76 | 192 | 1.7 | 9.6 | 0.00 | 0.00 | 0.00 | 92 | 1008.6 |
| 20260506081011 | 76 | 167 | 3.5 | 9.6 | 0.00 | 0.00 | 0.00 | 92 | 1008.6 |
| 20260506080509 | 76 | 171 | 2.6 | 6.1 | 0.00 | 0.00 | 0.00 | 92 | 1008.5 |
| 20260506073507 | 76 | 188 | 3.5 | 10.4 | 0.00 | 0.00 | 0.00 | 92 | 1008.9 |
| 20260506073024 | 76 | 166 | 3.5 | 7.8 | 0.00 | 0.00 | 0.00 | 92 | 1008.8 |
| 20260506072509 | 76 | 165 | 3.5 | 8.7 | 0.00 | 0.00 | 0.00 | 92 | 1008.9 |
| 20260506072016 | 76 | 183 | 1.7 | 8.7 | 0.00 | 0.00 | 0.00 | 92 | 1008.9 |
| 20260506071527 | 76 | 194 | 1.7 | 7.8 | 0.00 | 0.00 | 0.00 | 92 | 1008.9 |
| 20260506071004 | 76 | 157 | 3.5 | 7.8 | 0.00 | 0.00 | 0.00 | 92 | 1008.9 |
| 20260506070510 | 76 | 194 | 2.6 | 6.1 | 0.00 | 0.00 | 0.00 | 92 | 1009.1 |
| 20260506062510 | 76 | 265 | 2.6 | 6.1 | 0.00 | 0.00 | 0.00 | 92 | 1009.3 |
| 20260506062013 | 76 | 173 | 2.6 | 5.2 | 0.00 | 0.00 | 0.00 | 92 | 1009.4 |
| 20260506061523 | 76 | 254 | 1.7 | 7.8 | 0.00 | 0.00 | 0.00 | 92 | 1009.5 |
| 20260506061010 | 76 | 168 | 1.7 | 7.8 | 0.00 | 0.00 | 0.00 | 92 | 1009.5 |
| 20260506060509 | 76 | 142 | 3.5 | 7.0 | 0.00 | 0.00 | 0.00 | 92 | 1009.5 |
| 20260506051008 | 76 | 163 | 1.7 | 7.8 | 0.00 | 0.00 | 0.00 | 91 | 1009.3 |
| 20260506050510 | 76 | 170 | 2.6 | 7.8 | 0.00 | 0.00 | 0.00 | 91 | 1009.3 |
| 20260506045010 | 76 | 238 | 1.7 | 7.8 | 0.00 | 0.00 | 0.00 | 91 | 1009.3 |
| 20260506044537 | 76 | 192 | 1.7 | 7.8 | 0.00 | 0.00 | 0.00 | 91 | 1009.3 |
| 20260506044008 | 76 | 159 | 2.6 | 7.8 | 0.00 | 0.00 | 0.00 | 91 | 1009.3 |
| 20260506043513 | 76 | 173 | 1.7 | 7.8 | 0.00 | 0.00 | 0.00 | 91 | 1009.4 |
| 20260506043014 | 77 | 169 | 1.7 | 7.8 | 0.00 | 0.00 | 0.00 | 90 | 1009.3 |
| 20260506042512 | 77 | 164 | 1.7 | 7.0 | 0.00 | 0.00 | 0.00 | 90 | 1009.3 |
| 20260506042011 | 77 | 188 | 2.6 | 6.1 | 0.00 | 0.00 | 0.00 | 90 | 1009.2 |
| 20260506041522 | 77 | 171 | 0.9 | 7.0 | 0.00 | 0.00 | 0.00 | 90 | 1009.2 |
| 20260506041013 | 77 | 211 | 3.5 | 7.8 | 0.00 | 0.00 | 0.00 | 90 | 1009.1 |
| 20260506040514 | 77 | 207 | 3.5 | 7.8 | 0.00 | 0.00 | 0.00 | 89 | 1009.1 |
| 20260506040028 | 77 | 143 | 4.3 | 9.6 | 0.00 | 0.00 | 0.00 | 89 | 1009.1 |
| 20260506035510 | 77 | 168 | 4.3 | 9.6 | 0.00 | 0.00 | 0.00 | 89 | 1009.2 |
| 20260506035007 | 77 | 182 | 2.6 | 7.0 | 0.00 | 0.00 | 0.00 | 89 | 1009.2 |
| 20260506034520 | 77 | 148 | 1.7 | 9.6 | 0.00 | 0.00 | 0.00 | 89 | 1009.1 |
| 20260506034007 | 77 | 173 | 2.6 | 9.6 | 0.00 | 0.00 | 0.00 | 89 | 1008.9 |
| 20260506033514 | 77 | 153 | 3.5 | 9.6 | 0.00 | 0.00 | 0.00 | 89 | 1008.8 |
| 20260506033027 | 77 | 202 | 3.5 | 9.6 | 0.00 | 0.00 | 0.00 | 89 | 1008.7 |
| 20260506032510 | 77 | 218 | 1.7 | 9.6 | 0.00 | 0.00 | 0.00 | 89 | 1008.6 |
| 20260506032012 | 77 | 161 | 2.6 | 9.6 | 0.00 | 0.00 | 0.00 | 89 | 1008.5 |
| 20260506031518 | 77 | 187 | 4.3 | 10.4 | 0.00 | 0.00 | 0.00 | 89 | 1008.5 |
| 20260506031008 | 77 | 198 | 3.5 | 10.4 | 0.00 | 0.00 | 0.00 | 89 | 1008.4 |
| 20260506030508 | 77 | 93 | 2.6 | 9.6 | 0.00 | 0.00 | 0.00 | 89 | 1008.5 |
| 20260506030021 | 77 | 178 | 3.5 | 9.6 | 0.00 | 0.00 | 0.00 | 88 | 1008.6 |
| 20260506025511 | 77 | 169 | 3.5 | 11.3 | 0.00 | 0.00 | 0.00 | 88 | 1008.6 |
| 20260506025010 | 77 | 163 | 5.2 | 12.2 | 0.00 | 0.00 | 0.00 | 88 | 1008.5 |
| 20260506024532 | 78 | 213 | 5.2 | 12.2 | 0.00 | 0.00 | 0.00 | 88 | 1008.4 |
| 20260506024006 | 78 | 189 | 5.2 | 12.2 | 0.00 | 0.00 | 0.00 | 88 | 1008.3 |
| 20260506023510 | 78 | 205 | 3.5 | 7.8 | 0.00 | 0.00 | 0.00 | 88 | 1008.2 |
| 20260506023014 | 78 | 187 | 3.5 | 9.6 | 0.00 | 0.00 | 0.00 | 88 | 1008.2 |
| 20260506022513 | 78 | 189 | 4.3 | 9.6 | 0.00 | 0.00 | 0.00 | 88 | 1008.1 |
| 20260506022011 | 78 | 150 | 2.6 | 7.8 | 0.00 | 0.00 | 0.00 | 88 | 1008.0 |
| 20260506021525 | 78 | 186 | 3.5 | 8.7 | 0.00 | 0.00 | 0.00 | 88 | 1008.0 |
| 20260506021016 | 78 | 173 | 3.5 | 9.6 | 0.00 | 0.00 | 0.00 | 88 | 1007.9 |
| 20260506020511 | 78 | 171 | 4.3 | 9.6 | 0.00 | 0.00 | 0.00 | 87 | 1007.9 |
| 20260506020014 | 78 | 178 | 1.7 | 6.1 | 0.00 | 0.00 | 0.00 | 87 | 1007.9 |
| 20260506015504 | 78 | 184 | 2.6 | 8.7 | 0.00 | 0.00 | 0.00 | 87 | 1007.8 |
| 20260506015006 | 78 | 309 | 3.5 | 8.7 | 0.00 | 0.00 | 0.00 | 87 | 1007.7 |
| 20260506014519 | 78 | 178 | 3.5 | 7.8 | 0.00 | 0.00 | 0.00 | 87 | 1007.6 |
| 20260506014007 | 79 | 202 | 3.5 | 9.6 | 0.00 | 0.00 | 0.00 | 87 | 1007.6 |
| 20260506013510 | 79 | 187 | 3.5 | 10.4 | 0.00 | 0.00 | 0.00 | 87 | 1007.6 |
| 20260506013026 | 79 | 171 | 6.1 | 10.4 | 0.00 | 0.00 | 0.00 | 86 | 1007.5 |
| 20260506012511 | 79 | 169 | 3.5 | 9.6 | 0.00 | 0.00 | 0.00 | 86 | 1007.3 |
| 20260506012008 | 79 | 175 | 3.5 | 9.6 | 0.00 | 0.00 | 0.00 | 86 | 1007.2 |
| 20260506011517 | 79 | 195 | 3.5 | 8.7 | 0.00 | 0.00 | 0.00 | 86 | 1007.1 |
| 20260506011009 | 79 | 163 | 3.5 | 8.7 | 0.00 | 0.00 | 0.00 | 86 | 1007.0 |
| 20260506010518 | 79 | 202 | 4.3 | 7.8 | 0.00 | 0.00 | 0.00 | 85 | 1007.0 |
| 20260506010045 | 79 | 67 | 3.5 | 8.7 | 0.00 | 0.00 | 0.00 | 85 | 1007.0 |
| 20260506005509 | 79 | 207 | 3.5 | 8.7 | 0.00 | 0.00 | 0.00 | 85 | 1007.0 |
| 20260506005010 | 79 | 178 | 2.6 | 9.6 | 0.00 | 0.00 | 0.00 | 85 | 1007.0 |
| 20260506004527 | 80 | 221 | 3.5 | 9.6 | 0.00 | 0.00 | 0.00 | 84 | 1007.0 |
| 20260506004006 | 80 | 190 | 3.5 | 13.9 | 0.00 | 0.00 | 0.00 | 84 | 1006.9 |
| 20260506003510 | 80 | 153 | 5.2 | 13.9 | 0.00 | 0.00 | 0.00 | 84 | 1006.9 |
| 20260506003017 | 80 | 207 | 4.3 | 13.0 | 0.00 | 0.00 | 0.00 | 84 | 1006.7 |
| 20260506002508 | 80 | 34 | 5.2 | 13.0 | 0.00 | 0.00 | 0.00 | 84 | 1006.7 |
| 20260506002010 | 80 | 175 | 7.0 | 12.2 | 0.00 | 0.00 | 0.00 | 84 | 1006.7 |
| 20260506001524 | 80 | 155 | 5.2 | 12.2 | 0.00 | 0.00 | 0.00 | 84 | 1006.7 |
| 20260506001009 | 80 | 175 | 4.3 | 12.2 | 0.00 | 0.00 | 0.00 | 83 | 1006.8 |
| 20260506000512 | 81 | 175 | 4.3 | 11.3 | 0.00 | 0.00 | 0.00 | 83 | 1006.8 |
| 20260506000014 | 81 | 188 | 5.2 | 11.3 | 0.00 | 0.00 | 0.00 | 84 | 1006.8 |
| 20260505235504 | 81 | 166 | 5.2 | 11.3 | 0.00 | 0.00 | 0.00 | 83 | 1006.8 |
| 20260505235011 | 81 | 185 | 5.2 | 11.3 | 0.00 | 0.00 | 0.00 | 83 | 1006.6 |
| 20260505234519 | 81 | 152 | 4.3 | 11.3 | 0.00 | 0.00 | 0.00 | 83 | 1006.6 |
| 20260505234009 | 81 | 315 | 5.2 | 14.8 | 0.00 | 0.00 | 0.00 | 83 | 1006.6 |
| 20260505233510 | 81 | 207 | 6.1 | 14.8 | 0.00 | 0.00 | 0.00 | 83 | 1006.5 |
| 20260505233028 | 82 | 175 | 3.5 | 11.3 | 0.00 | 0.00 | 0.00 | 83 | 1006.6 |
| 20260505232517 | 81 | 190 | 4.3 | 13.0 | 0.00 | 0.00 | 0.00 | 83 | 1006.7 |
| 20260505232009 | 82 | 178 | 6.1 | 14.8 | 0.00 | 0.00 | 0.00 | 82 | 1006.7 |
| 20260505231529 | 82 | 218 | 6.1 | 14.8 | 0.00 | 0.00 | 0.00 | 82 | 1006.6 |
| 20260505231007 | 82 | 196 | 6.1 | 13.9 | 0.00 | 0.00 | 0.00 | 82 | 1006.6 |
| 20260505230507 | 82 | 195 | 5.2 | 11.3 | 0.00 | 0.00 | 0.00 | 82 | 1006.7 |
| 20260505230038 | 83 | 9 | 2.6 | 13.0 | 0.00 | 0.00 | 0.00 | 83 | 1006.6 |
| 20260505225511 | 83 | 182 | 5.2 | 13.9 | 0.00 | 0.00 | 0.00 | 83 | 1006.6 |
| 20260505225010 | 82 | 194 | 6.1 | 13.9 | 0.00 | 0.00 | 0.00 | 82 | 1006.6 |
| 20260505224533 | 83 | 93 | 3.5 | 14.8 | 0.00 | 0.00 | 0.00 | 82 | 1006.6 |
| 20260505224005 | 83 | 200 | 5.2 | 14.8 | 0.00 | 0.00 | 0.00 | 82 | 1006.7 |
| 20260505223507 | 83 | 265 | 7.0 | 13.9 | 0.00 | 0.00 | 0.00 | 81 | 1006.7 |
| 20260505223017 | 84 | 178 | 3.5 | 13.0 | 0.00 | 0.00 | 0.00 | 81 | 1006.7 |
| 20260505222510 | 84 | 175 | 5.2 | 13.0 | 0.00 | 0.00 | 0.00 | 81 | 1006.8 |
| 20260505222008 | 84 | 170 | 4.3 | 12.2 | 0.00 | 0.00 | 0.00 | 81 | 1006.7 |
| 20260505221526 | 84 | 197 | 3.5 | 12.2 | 0.00 | 0.00 | 0.00 | 81 | 1006.8 |
| 20260505221010 | 84 | 175 | 5.2 | 9.6 | 0.00 | 0.00 | 0.00 | 80 | 1006.8 |
| 20260505220509 | 84 | 234 | 3.5 | 13.0 | 0.00 | 0.00 | 0.00 | 80 | 1006.8 |
| 20260505220013 | 84 | 183 | 6.1 | 13.0 | 0.00 | 0.00 | 0.00 | 79 | 1006.9 |
| 20260505215508 | 84 | 178 | 4.3 | 11.3 | 0.00 | 0.00 | 0.00 | 80 | 1007.0 |
| 20260505215007 | 84 | 194 | 5.2 | 13.0 | 0.00 | 0.00 | 0.00 | 80 | 1007.1 |
| 20260505214521 | 84 | 185 | 4.3 | 13.0 | 0.00 | 0.00 | 0.00 | 80 | 1007.0 |
| 20260505214008 | 84 | 167 | 5.2 | 13.0 | 0.00 | 0.00 | 0.00 | 79 | 1007.1 |
| 20260505213508 | 84 | 189 | 6.1 | 13.0 | 0.00 | 0.00 | 0.00 | 79 | 1007.2 |
| 20260505213029 | 84 | 178 | 5.2 | 14.8 | 0.00 | 0.00 | 0.00 | 80 | 1007.2 |
| 20260505212513 | 84 | 137 | 3.5 | 16.5 | 0.00 | 0.00 | 0.00 | 79 | 1007.3 |
| 20260505212006 | 85 | 196 | 5.2 | 16.5 | 0.00 | 0.00 | 0.00 | 79 | 1007.2 |
| 20260505211520 | 84 | 187 | 5.2 | 13.0 | 0.00 | 0.00 | 0.00 | 79 | 1007.3 |
| 20260505211007 | 84 | 227 | 6.1 | 13.0 | 0.00 | 0.00 | 0.00 | 79 | 1007.3 |
| 20260505210508 | 84 | 184 | 4.3 | 13.0 | 0.00 | 0.00 | 0.00 | 80 | 1007.5 |
| 20260505210026 | 84 | 194 | 3.5 | 13.0 | 0.00 | 0.00 | 0.00 | 80 | 1007.6 |
| 20260505205513 | 84 | 164 | 3.5 | 12.2 | 0.00 | 0.00 | 0.00 | 80 | 1007.7 |
| 20260505205011 | 84 | 146 | 5.2 | 11.3 | 0.00 | 0.00 | 0.00 | 80 | 1007.7 |
| 20260505204527 | 84 | 169 | 6.1 | 12.2 | 0.00 | 0.00 | 0.00 | 80 | 1007.9 |
| 20260505204012 | 84 | 183 | 4.3 | 15.6 | 0.00 | 0.00 | 0.00 | 80 | 1008.0 |
| 20260505203510 | 84 | 171 | 7.0 | 15.6 | 0.00 | 0.00 | 0.00 | 79 | 1008.0 |
| 20260505203028 | 85 | 159 | 5.2 | 9.6 | 0.00 | 0.00 | 0.00 | 80 | 1008.0 |
| 20260505202510 | 85 | 229 | 5.2 | 13.9 | 0.00 | 0.00 | 0.00 | 79 | 1008.0 |
| 20260505202010 | 85 | 157 | 5.2 | 13.9 | 0.00 | 0.00 | 0.00 | 79 | 1008.2 |
| 20260505201526 | 85 | 93 | 3.5 | 11.3 | 0.00 | 0.00 | 0.00 | 80 | 1008.2 |
| 20260505201011 | 85 | 186 | 3.5 | 11.3 | 0.00 | 0.00 | 0.00 | 81 | 1008.3 |
| 20260505200511 | 84 | 153 | 3.5 | 11.3 | 0.00 | 0.00 | 0.00 | 81 | 1008.4 |
| 20260505200012 | 84 | 169 | 5.2 | 13.0 | 0.00 | 0.00 | 0.00 | 80 | 1008.4 |
| 20260505195507 | 84 | 178 | 2.6 | 13.0 | 0.00 | 0.00 | 0.00 | 80 | 1008.4 |
| 20260505195009 | 84 | 197 | 5.2 | 12.2 | 0.00 | 0.00 | 0.00 | 81 | 1008.5 |
| 20260505194522 | 84 | 157 | 5.2 | 12.2 | 0.00 | 0.00 | 0.00 | 81 | 1008.6 |
| 20260505194012 | 83 | 171 | 2.6 | 10.4 | 0.00 | 0.00 | 0.00 | 81 | 1008.7 |
| 20260505193510 | 84 | 81 | 4.3 | 13.0 | 0.00 | 0.00 | 0.00 | 82 | 1008.7 |
| 20260505193028 | 83 | 197 | 5.2 | 13.0 | 0.00 | 0.00 | 0.00 | 82 | 1008.7 |
| 20260505192511 | 83 | 163 | 3.5 | 8.7 | 0.00 | 0.00 | 0.00 | 83 | 1008.7 |
| 20260505192009 | 83 | 178 | 3.5 | 10.4 | 0.00 | 0.00 | 0.00 | 83 | 1008.7 |
| 20260505191515 | 82 | 178 | 3.5 | 10.4 | 0.00 | 0.00 | 0.00 | 82 | 1008.8 |
| 20260505191009 | 83 | 190 | 3.5 | 10.4 | 0.00 | 0.00 | 0.00 | 82 | 1008.9 |
| 20260505190514 | 83 | 175 | 1.7 | 11.3 | 0.00 | 0.00 | 0.00 | 83 | 1008.9 |
| 20260505190033 | 82 | 9 | 5.2 | 13.0 | 0.00 | 0.00 | 0.00 | 82 | 1008.8 |
| 20260505185511 | 83 | 192 | 4.3 | 14.8 | 0.00 | 0.00 | 0.00 | 82 | 1008.9 |
| 20260505185011 | 83 | 187 | 4.3 | 14.8 | 0.00 | 0.00 | 0.00 | 82 | 1008.8 |
| 20260505184528 | 83 | 185 | 3.5 | 8.7 | 0.00 | 0.00 | 0.00 | 83 | 1008.9 |
| 20260505184007 | 82 | 265 | 3.5 | 13.0 | 0.00 | 0.00 | 0.00 | 82 | 1008.9 |
| 20260505183508 | 82 | 195 | 3.5 | 13.0 | 0.00 | 0.00 | 0.00 | 82 | 1008.9 |
| 20260505183019 | 82 | 238 | 3.5 | 10.4 | 0.00 | 0.00 | 0.00 | 83 | 1009.1 |